Location: Unspecified
(48.2082°N, 0.0000°E)
Time: 21:56:44
(UTC+00:00)

Transit 4A - Pass Details

Date: 24 June 2019
Orbit: 867 x 978 km, 66.8° (Epoch: 21 October)

Event Time Altitude Azimuth Distance (km) Brightness Sun altitude
Rises 09:19:00 0° 245° (WSW) 3,628 10.7 49.4°
Reaches altitude 10° 09:21:46 10° 254° (WSW) 2,699 10.1 49.8°
Maximum altitude 09:27:32 36° 320° (NW) 1,503 9.1 50.7°
Drops below altitude 10° 09:33:23 10° 26° (NNE) 2,738 10.5 51.5°
Sets 09:36:13 0° 35° (NE) 3,687 11.1 52.0°
